Location: Hastringsfeld
(50.9620°N, 10.4787°E)
Time: 04:39:03
(UTC+00:00)

Cosmos 44 - Pass Details

Date: 26 September 2023
Orbit: 570 x 788 km, 65.1° (Epoch: 28 November)

Event Time Altitude Azimuth Distance (km) Brightness Sun altitude
Exits shadow 02:59:12 46° 234° (SW) 979 3.6 -20.8°
Maximum altitude 03:00:43 79° 312° (NW) 763 3.4 -20.5°
Drops below altitude 10° 03:06:05 10° 40° (NE) 2,320 6.9 -19.8°
Sets 03:08:33 0° 41° (NE) 3,269 7.9 -19.4°
